This demonstration page uses our WeatherBlox Daily Observations layout. Learn more.

Left ArrowRight Arrow

Hourly Observations for June 6, 2017

Temp ( °F °C ) Dew Point ( °F °C ) Humidity (%) Winds ( mph kmh ) Pressure ( in mb ) Visibility ( mi km ) Precip ( " mm )
12:12 am 00:12 Partly Cloudy 72 22.2 72 22.2 100 100 SSW 5 7 29.80 1009 10 16 0.00 0.00
12:32 am 00:32 Mostly Cloudy 72 22.2 72 22.2 100 100 SSW 5 7 29.80 1009 8 13 0.00 0.00
12:41 am 00:41 Mostly Cloudy with Light Rain 72 22.2 72 22.2 100 100 SW 3 6 29.80 1009 9 14 0.01 0.25
12:53 am 00:53 Mostly Cloudy with Light Rain 71 21.7 71 21.7 100 100 WSW 3 6 29.80 1009 10 16 0.01 0.25
1:53 am 01:53 Cloudy with Light Rain 71 21.7 71 21.7 100 100 Calm 29.80 1009 9 14 0.00 0.03
2:38 am 02:38 Cloudy with Light Rain 71 21.7 71 21.7 100 100 Calm 29.80 1009 10 16 0.03 0.76
2:49 am 02:49 Cloudy 72 22 72 22 100 100 Calm 29.80 1009 10 16 0.03 0.76
2:53 am 02:53 Cloudy 71 21.7 71 21.7 100 100 Calm 29.79 1009 10 16 0.03 0.76
3:15 am 03:15 Cloudy 71 21.7 71 21.7 100 100 Calm 29.80 1009 10 16 0.00 0.00
3:53 am 03:53 Mostly Cloudy 71 21.7 71 21.7 100 100 Calm 29.78 1009 10 16 0.00 0.00
4:26 am 04:26 Partly Cloudy 71 21.7 71 21.7 100 100 Calm 29.77 1008 10 16 0.00 0.00
4:53 am 04:53 Clear 71 21.7 71 21.7 100 100 Calm 29.78 1008 10 16 0.00 0.00
5:53 am 05:53 Partly Cloudy 70 21.1 70 21.1 100 100 Calm 29.78 1009 10 16 0.00 0.00
6:53 am 06:53 Partly Cloudy 71 21.7 71 21.7 100 100 Calm 29.79 1009 10 16 0.00 0.00
7:53 am 07:53 Mostly Sunny 71 21.7 71 21.7 100 100 Calm 29.79 1009 10 16 0.00 0.00
8:53 am 08:53 Cloudy 72 22.2 71 21.7 97 97 Calm 29.80 1009 10 16 0.00 0.00
9:24 am 09:24 Cloudy 73 22.8 71 21.7 94 94 Calm 29.80 1009 10 16 0.00 0.00
9:39 am 09:39 Cloudy 74 23.3 72 22.2 94 94 Calm 29.80 1009 10 16 0.00 0.00
9:53 am 09:53 Mostly Cloudy 74 23.3 71 21.7 91 91 Calm 29.80 1009 10 16 0.00 0.00
10:53 am 10:53 Cloudy 75 23.9 72 22.2 90 90 Calm 29.79 1009 10 16 0.00 0.00
11:53 am 11:53 Cloudy 77 25 71 21.7 82 82 W 3 6 29.79 1009 10 16 0.00 0.00
12:53 pm 12:53 Mostly Cloudy 79 26.1 70 21.1 74 74 NNW 8 13 29.77 1008 10 16 0.00 0.00
1:53 pm 13:53 Cloudy 78 25.6 70 21.1 76 76 WNW 6 9 29.76 1008 10 16 0.00 0.03
2:53 pm 14:53 Mostly Cloudy with Light Rain 76 24.4 72 22.2 88 88 NW 6 9 29.75 1008 10 16 0.00 0.03
3:53 pm 15:53 Cloudy with Light Rain 76 24.4 73 22.8 91 91 Calm 29.73 1007 10 16 0.01 0.25
4:53 pm 16:53 Cloudy with Light Rain 76 24.4 74 23.3 94 94 undefined N/A 29.73 1007 10 16 0.02 0.51
5:53 pm 17:53 Cloudy with Light Rain 77 25 74 23.3 90 90 Calm 29.72 1007 10 16 0.00 0.03
6:53 pm 18:53 Sunny 77 25 74 23.3 90 90 N 5 7 29.71 1006 10 16 0.01 0.25
7:53 pm 19:53 Partly Cloudy 75 23.9 74 23.3 96 96 Calm 29.72 1006 10 16 0.00 0.00
8:53 pm 20:53 Clear 75 23.9 74 23.3 96 96 Calm 29.72 1007 10 16 0.00 0.00
9:53 pm 21:53 Clear 74 23.3 73 22.8 97 97 Calm 29.73 1007 10 16 0.00 0.00
10:53 pm 22:53 Mostly Clear 73 22.8 73 22.8 100 100 Calm 29.75 1007 10 16 0.00 0.00
11:53 pm 23:53 Cloudy 72 22.2 72 22.2 100 100 Calm 29.76 1008 10 16 0.00 0.00

Powered by AerisWeather